Wind_Speed
50 49 49 50 49 50 50 50 51 50 50 50 51 52 52 52 52 52 52 53 54 54 54 54 54 53 53 52 52 52 52 51 50 49 49 49 49 48
48 48 48 49 49 49 49 50 51 51 51 50 51 51 51 51 51 51 52 52 52 52 52 52 53 53 52 52 51 51 52 53 52 51 51 50 49 49
47 47 48 49 50 50 50 50 51 51 51 50 50 50 51 51 52 52 52 52 51 51 50 51 51 52 53 52 51 51 51 51 51 51 51 51 50 49
45 46 47 48 49 49 49 50 51 51 51 50 49 50 50 51 52 52 52 51 51 50 49 49 50 50 51 51 52 52 51 50 50 50 50 51 50 48
44 45 46 47 47 48 49 49 50 50 50 50 49 49 50 50 50 50 50 50 49 49 50 49 49 49 49 50 50 50 50 50 50 50 49 49 49 48
46 46 46 46 47 48 48 49 49 50 50 50 49 49 48 48 48 48 48 48 48 48 49 49 49 48 48 48 49 48 49 49 50 49 49 49 49 49
45 46 46 47 47 47 48 48 49 49 50 50 49 48 47 47 47 47 47 48 48 48 48 48 48 48 48 48 48 47 47 48 48 48 48 49 49 48
44 45 45 46 46 45 46 47 48 48 48 48 47 47 47 47 47 47 46 46 47 47 48 48 49 48 47 47 48 48 47 46 47 48 48 48 48 48
44 44 44 45 45 45 45 46 46 46 47 47 46 46 46 46 46 46 46 46 45 46 46 46 47 48 48 47 47 46 45 45 46 46 46 46 45 46
43 43 44 44 44 45 44 44 44 44 44 45 46 46 46 46 46 46 46 46 45 45 46 46 46 46 46 46 45 44 43 43 44 44 44 44 44 45
42 42 43 43 43 44 43 44 43 43 44 44 45 45 45 45 46 45 45 45 45 45 46 46 45 45 45 44 44 44 44 44 43 43 43 44 44 44
40 41 41 42 42 43 43 43 43 43 43 44 44 43 43 43 43 43 44 44 45 44 43 44 44 44 44 44 44 43 43 42 43 43 43 42 42 42
38 38 39 39 40 40 41 42 42 42 42 42 41 41 41 42 41 41 42 42 42 41 41 41 41 41 41 41 41 41 41 41 42 42 42 41 41 41
37 37 37 37 37 38 39 39 41 41 41 41 40 39 39 40 40 40 39 39 38 38 38 38 38 38 38 38 38 39 39 39 40 40 41 40 40 39
37 36 36 36 36 36 37 38 38 39 39 39 39 38 38 38 38 38 37 36 36 36 36 36 36 35 36 36 36 37 37 37 37 37 37 37 37 37
36 36 36 36 36 37 37 37 37 37 37 37 37 37 37 37 37 36 35 35 35 35 35 34 34 34 33 33 34 33 34 34 34 34 34 34 34 34
35 36 35 35 36 36 36 36 35 35 34 34 34 34 34 34 34 34 34 33 33 32 32 32 32 31 31 31 31 30 31 31 31 31 32 32 31 31
34 33 34 34 35 35 34 33 33 33 33 32 32 32 32 32 32 31 31 31 31 31 30 30 30 30 30 29 29 28 27 27 27 28 28 28 28 28
32 32 32 33 33 32 31 31 31 30 30 31 31 31 30 30 30 29 28 29 29 29 29 28 28 28 27 27 26 25 25 25 25 25 25 25 26 26
31 31 31 31 31 30 30 29 29 29 29 30 30 29 29 28 27 27 27 28 27 27 27 27 27 26 26 24 23 23 23 22 22 22 23 24 24 24
30 30 29 29 29 29 28 28 28 28 28 28 27 27 27 27 26 26 26 26 25 25 24 24 23 23 23 22 20 20 21 21 20 20 21 21 21 21
28 28 28 28 27 26 26 27 27 27 27 26 26 26 26 26 25 24 24 24 23 22 22 21 21 21 20 20 20 20 20 19 19 19 19 19 18 19
27 27 27 27 26 26 26 27 26 26 26 26 26 25 25 24 23 23 22 21 21 20 20 19 19 19 19 19 19 19 19 19 19 19 18 17 17 17
Wind_Direction
270 271 272 272 274 274 274 274 274 274 273 273 273 273 273 272 272 271 270 270 270 270 270 270 271 271 271 270 269 268 269 268 267 267 266 266 266 265
270 270 272 272 273 274 274 274 275 275 274 274 274 273 272 272 272 271 271 271 271 272 271 270 270 270 269 270 270 269 269 268 267 266 266 265 265 265
270 271 271 271 273 273 274 274 275 276 276 276 275 273 272 271 270 271 270 270 270 271 272 272 272 270 269 269 268 268 268 267 267 264 264 264 265 265
271 272 272 272 273 273 274 275 276 277 278 277 275 274 273 271 271 271 270 270 270 270 271 272 272 271 270 269 268 268 267 268 265 264 263 263 264 265
273 274 273 273 274 274 274 275 276 277 278 277 276 275 274 273 272 271 270 270 271 271 271 271 271 270 271 270 269 268 268 267 265 264 262 263 264 264
276 275 275 275 275 275 275 276 276 277 277 278 278 277 275 274 272 271 270 270 270 270 270 271 270 270 269 269 268 267 267 267 266 264 264 264 264 264
278 277 277 277 277 277 277 277 277 277 277 277 278 276 275 274 273 271 270 270 271 270 269 269 269 269 268 268 268 267 267 267 266 264 264 264 264 263
278 279 278 278 278 278 278 278 278 277 277 277 277 276 275 274 273 272 271 271 270 269 269 269 269 268 268 268 268 267 267 267 267 265 266 265 264 264
278 279 279 279 278 279 279 279 279 278 278 277 277 276 275 275 274 272 271 271 271 270 270 270 270 271 269 269 269 269 268 268 267 267 266 264 265 264
279 279 279 279 280 280 280 280 281 280 279 278 277 276 275 274 274 272 271 271 271 271 271 272 271 271 270 270 269 267 267 267 267 265 264 264 265 266
280 279 279 279 280 280 280 281 281 280 279 278 278 277 276 275 274 273 272 272 272 272 272 272 271 271 271 269 268 267 267 267 266 265 265 266 266 266
282 281 281 281 281 280 280 281 281 281 280 279 278 277 276 275 275 274 273 273 273 273 272 272 271 270 269 268 268 267 267 266 265 265 266 267 266 266
283 283 283 283 284 283 283 283 284 283 282 280 278 278 276 276 275 275 275 275 275 274 272 271 271 270 269 268 267 268 267 266 265 265 265 265 265 265
284 284 284 285 286 286 286 287 286 285 284 282 280 280 279 278 277 276 276 275 275 273 272 271 271 270 269 269 268 268 267 266 265 265 265 265 265 265
285 285 285 287 288 288 288 288 288 287 285 283 281 281 280 279 278 277 276 274 273 272 272 271 271 271 270 270 268 268 266 265 265 264 264 264 265 265
287 287 286 287 288 288 290 290 289 288 285 283 282 281 280 279 279 278 276 273 271 272 271 271 269 269 270 270 269 268 266 265 264 262 263 263 264 262
288 288 287 288 290 290 290 290 290 288 286 285 284 283 281 281 281 278 276 274 272 271 271 269 267 267 269 270 268 266 265 265 264 262 261 262 262 260
290 290 290 290 292 292 291 290 289 287 287 287 285 285 284 283 281 279 277 275 274 273 271 271 268 268 268 266 266 266 266 266 265 264 263 263 263 261
291 291 291 292 292 292 291 291 290 290 289 288 286 285 285 284 282 278 275 275 276 275 273 271 269 269 268 265 265 265 265 265 265 264 263 264 264 263
291 291 291 292 292 292 292 292 291 291 291 290 287 285 284 283 281 278 277 277 276 275 273 271 269 268 265 263 264 263 262 263 264 263 264 265 265 264
291 290 291 291 292 292 291 292 292 292 292 291 289 286 283 282 280 278 278 277 275 273 271 268 266 264 262 261 260 260 260 261 262 263 264 265 265 261
291 291 292 292 293 293 293 293 293 292 292 293 291 288 284 282 280 279 278 276 275 273 269 266 263 260 258 258 258 257 257 258 260 263 264 265 266 262
291 291 291 291 292 292 292 293 293 293 293 293 293 290 287 283 281 279 278 276 274 272 268 264 261 258 256 257 258 257 257 257 259 261 262 264 264 262
Height
5628 5629 5629 5629 5628 5627 5626 5626 5626 5627 5629 5628 5626 5623 5621 5621 5620 5619 5619 5619 5619 5619 5619 5619 5619 5620 5620 5620 5621 5621 5622 5622 5623 5624 5625 5626 5627 5628
5616 5616 5616 5616 5615 5614 5613 5613 5612 5611 5613 5614 5611 5609 5607 5606 5605 5604 5604 5604 5604 5604 5604 5604 5604 5605 5605 5606 5606 5606 5607 5608 5609 5610 5611 5612 5613 5614
5603 5604 5604 5603 5602 5602 5600 5599 5598 5597 5597 5598 5597 5595 5593 5592 5591 5590 5589 5590 5590 5590 5590 5590 5590 5590 5590 5591 5591 5592 5592 5593 5594 5596 5597 5598 5599 5601
5591 5591 5591 5590 5589 5588 5587 5586 5585 5583 5582 5583 5583 5581 5579 5578 5577 5576 5575 5575 5575 5576 5575 5576 5576 5576 5576 5576 5577 5577 5578 5578 5579 5581 5583 5584 5586 5586
5579 5579 5578 5577 5576 5575 5574 5573 5571 5570 5568 5567 5567 5566 5565 5563 5562 5562 5561 5561 5561 5561 5561 5561 5561 5561 5562 5562 5562 5563 5564 5564 5565 5566 5567 5569 5571 5572
5567 5566 5565 5564 5563 5562 5561 5559 5558 5556 5554 5553 5553 5552 5550 5549 5548 5548 5548 5548 5548 5547 5547 5547 5547 5548 5548 5548 5549 5549 5549 5550 5550 5551 5553 5554 5556 5558
5555 5554 5553 5552 5550 5548 5547 5546 5544 5542 5541 5539 5539 5537 5536 5535 5534 5534 5534 5534 5534 5533 5533 5534 5534 5534 5534 5534 5534 5535 5535 5535 5536 5537 5538 5540 5542 5543
5543 5542 5540 5539 5537 5535 5534 5532 5530 5528 5527 5526 5525 5524 5523 5521 5520 5519 5519 5520 5521 5521 5520 5520 5520 5520 5521 5521 5521 5521 5521 5521 5522 5523 5524 5526 5527 5528
5531 5530 5528 5526 5525 5523 5521 5519 5517 5515 5513 5512 5511 5511 5509 5508 5507 5506 5506 5506 5506 5507 5506 5507 5506 5507 5507 5507 5506 5507 5507 5507 5508 5509 5510 5512 5513 5514
5519 5518 5516 5515 5513 5511 5509 5507 5505 5503 5501 5499 5499 5497 5495 5494 5492 5492 5492 5492 5493 5493 5492 5493 5493 5493 5493 5493 5493 5493 5494 5495 5496 5497 5498 5499 5500 5501
5508 5506 5504 5503 5501 5499 5497 5495 5493 5491 5488 5486 5485 5484 5482 5481 5479 5479 5479 5479 5480 5481 5479 5478 5479 5479 5479 5479 5480 5480 5481 5482 5483 5484 5485 5486 5487 5488
5497 5495 5493 5491 5488 5486 5484 5483 5481 5479 5476 5474 5472 5471 5469 5468 5467 5466 5465 5465 5466 5467 5466 5465 5465 5465 5466 5467 5467 5468 5468 5469 5470 5471 5472 5473 5474 5475
5486 5484 5482 5480 5477 5475 5472 5470 5469 5466 5464 5462 5460 5459 5457 5456 5455 5454 5453 5452 5452 5453 5453 5452 5452 5452 5452 5455 5456 5455 5456 5456 5457 5458 5459 5460 5461 5462
5476 5474 5472 5469 5467 5464 5461 5459 5457 5454 5452 5450 5449 5448 5446 5445 5443 5442 5441 5441 5440 5440 5440 5440 5441 5441 5441 5442 5443 5444 5444 5444 5445 5446 5446 5448 5449 5450
5465 5463 5461 5459 5456 5454 5451 5448 5445 5443 5441 5439 5438 5437 5435 5433 5432 5431 5430 5430 5429 5429 5429 5429 5429 5429 5430 5430 5431 5432 5432 5433 5433 5433 5434 5436 5437 5438
5455 5453 5451 5448 5446 5443 5441 5438 5435 5432 5430 5428 5427 5426 5424 5423 5422 5420 5420 5419 5419 5419 5419 5419 5418 5418 5419 5419 5420 5420 5421 5421 5422 5423 5424 5425 5426 5428
5445 5443 5441 5439 5436 5433 5430 5427 5425 5422 5420 5418 5417 5415 5414 5412 5411 5410 5409 5409 5409 5409 5409 5409 5408 5408 5409 5410 5410 5411 5411 5411 5412 5413 5414 5416 5417 5419
5435 5433 5431 5429 5426 5423 5420 5417 5415 5413 5410 5409 5407 5406 5404 5403 5402 5401 5400 5399 5399 5399 5399 5399 5399 5399 5400 5401 5402 5402 5402 5403 5404 5404 5406 5407 5409 5410
5426 5424 5422 5419 5416 5413 5411 5408 5406 5403 5401 5399 5398 5397 5395 5394 5393 5392 5391 5391 5390 5390 5390 5390 5390 5391 5392 5394 5394 5394 5395 5396 5396 5397 5398 5400 5401 5402
5417 5415 5413 5410 5407 5404 5402 5399 5397 5395 5393 5391 5389 5388 5387 5385 5384 5384 5383 5382 5382 5382 5381 5381 5382 5383 5384 5386 5387 5387 5387 5388 5389 5390 5391 5392 5393 5394
5409 5406 5404 5401 5399 5396 5394 5391 5389 5387 5385 5383 5381 5380 5378 5377 5376 5376 5375 5374 5374 5374 5374 5374 5375 5376 5377 5378 5380 5381 5382 5382 5383 5384 5385 5386 5387 5388
5400 5398 5395 5393 5391 5388 5386 5384 5382 5380 5378 5375 5374 5372 5370 5369 5368 5368 5367 5367 5367 5366 5367 5367 5368 5369 5370 5372 5373 5375 5376 5377 5377 5378 5379 5381 5382 5383
5392 5390 5387 5385 5383 5381 5379 5376 5374 5372 5370 5368 5366 5364 5363 5362 5361 5360 5360 5360 5360 5360 5360 5361 5362 5363 5365 5366 5367 5369 5370 5371 5372 5373 5374 5375 5376 5377